Simultaneous Nadir Overpasses (SNOs) Predictions

Prediction of SNOs between LANDSAT-8 and TERRA Satellite Orbit:

Table of predicted SNOs for the next 14.0 days since TLE Epoch: 7/21/2023
Index Date (LANDSAT-8) Time (LANDSAT-8) Lat,Lon (LANDSAT-8) SZA (LANDSAT-8 ) Date (TERRA) Time (TERRA) Lat,Lon (TERRA) SZA (TERRA ) Distance(km) Time Diff (sec)
1 07/23/2023 07:10:46 -81.22, -23.33 110.97 07/23/2023 07:11:56 -81.23, -23.38 110.94 0.88 70
2 07/23/2023 08:00:13 81.23, 144.24 69.03 07/23/2023 08:01:18 81.23, 144.24 69.07 0.05 65
3 07/23/2023 08:49:39 -81.22, -47.99 110.95 07/23/2023 08:50:40 -81.22, -47.99 110.91 0.06 61
4 07/23/2023 09:39:05 81.20, 119.95 69.11 07/23/2023 09:40:01 81.20, 120.00 69.15 0.93 56
5 07/23/2023 10:28:31 -81.20, -72.29 110.87 07/23/2023 10:29:23 -81.19, -72.24 110.83 0.88 52
6 07/23/2023 11:17:58 81.20, 95.28 69.13 07/23/2023 11:18:45 81.20, 95.38 69.17 1.81 47
7 07/23/2023 12:07:24 -81.19, -96.95 110.85 07/23/2023 12:08:07 -81.19, -96.86 110.81 1.76 43
8 07/23/2023 12:56:50 81.17, 70.99 69.20 07/23/2023 12:57:28 81.17, 71.13 69.25 2.70 38
9 07/23/2023 13:46:16 -81.17,-121.25 110.78 07/23/2023 13:46:50 -81.16,-121.11 110.73 2.63 34
10 07/23/2023 14:35:41 81.13, 47.05 69.34 07/23/2023 14:36:11 81.14, 46.88 69.33 3.20 30
11 07/23/2023 15:25:07 -81.12,-145.19 110.64 07/23/2023 15:25:33 -81.13,-145.36 110.65 3.25 26
12 07/23/2023 16:14:33 81.10, 22.75 69.41 07/23/2023 16:14:54 81.11, 22.62 69.41 2.32 21
13 07/23/2023 17:03:59 -81.09,-169.49 110.57 07/23/2023 17:04:16 -81.10,-169.62 110.58 2.37 17
14 07/23/2023 17:53:25 81.07, -1.55 69.49 07/23/2023 17:53:37 81.08, -1.63 69.49 1.44 12
15 07/23/2023 18:42:51 -81.06, 166.20 110.49 07/23/2023 18:42:59 -81.07, 166.12 110.50 1.49 8
16 07/23/2023 19:32:18 81.07, -26.22 69.51 07/23/2023 19:32:21 81.07, -26.25 69.51 0.56 3
17 07/23/2023 20:21:43 -81.04, 141.89 110.41 07/23/2023 20:21:42 -81.04, 141.85 110.42 0.62 1
18 07/23/2023 21:11:10 81.04, -50.53 69.59 07/23/2023 21:11:04 81.04, -50.51 69.59 0.34 6
19 07/23/2023 22:00:35 -81.01, 117.58 110.34 07/23/2023 22:00:25 -81.01, 117.59 110.34 0.28 10
20 07/23/2023 22:50:02 81.01, -74.84 69.67 07/23/2023 22:49:47 81.01, -74.78 69.67 1.22 15
21 07/23/2023 23:39:28 -81.00, 92.91 110.31 07/23/2023 23:39:09 -81.00, 92.97 110.32 1.14 19
22 07/24/2023 00:28:54 80.98, -99.16 69.74 07/24/2023 00:28:30 80.97, -99.05 69.75 2.10 24
23 07/24/2023 01:18:20 -80.97, 68.59 110.24 07/24/2023 01:17:52 -80.97, 68.70 110.24 2.01 28
24 07/24/2023 02:07:46 80.95,-123.47 69.82 07/24/2023 02:07:13 80.94,-123.32 69.82 2.99 33
25 07/24/2023 02:57:12 -80.95, 44.27 110.16 07/24/2023 02:56:35 -80.94, 44.42 110.16 2.88 37
26 07/24/2023 03:46:36 80.87,-147.10 70.01 07/24/2023 03:45:55 80.88,-147.25 69.96 2.92 41
27 07/24/2023 04:36:02 -80.86, 20.64 109.97 07/24/2023 04:35:17 -80.87, 20.49 110.03 3.00 45
28 07/24/2023 05:25:28 80.84,-171.42 70.09 07/24/2023 05:24:38 80.85,-171.53 70.04 2.04 50
29 07/24/2023 06:14:54 -80.83, -3.69 109.90 07/24/2023 06:14:00 -80.84, -3.79 109.95 2.12 54
30 07/24/2023 07:04:20 80.81, 164.25 70.16 07/24/2023 07:03:21 80.81, 164.19 70.11 1.16 59
31 07/24/2023 07:53:46 -80.80, -28.02 109.82 07/24/2023 07:52:43 -80.81, -28.08 109.87 1.25 63
32 07/24/2023 08:43:12 80.78, 139.91 70.24 07/24/2023 08:42:04 80.78, 139.90 70.19 0.27 68



Historial Predications of SNOs between LANDSAT-8 and TERRA
